Weather in Russky Kamekshir

Russia / Penza Oblast     52°51′36″N   46°05′15″E
temp.,
°C
wind,
m/s
gust,
m/s
humid.,
%
clouds,
%
prec.,
mm/h
press.,
hPa
HPBL,
m
1 july, fri
fri100:00+11w33885 0.2 101142
03:00+9nne229586 1.1 101029
06:00+11n3693100 1.3 1009243
09:00+10ne81093100 3.4 1010649
12:00+11ne6877100 0.4 1011996
15:00+12nne687799 1.4 10111055
18:00+10nne61086100 1.3 1011812
21:00+8nnw61096100 6.4 1011441
2 july, sat
sat200:00+11ene51195100 3.5 1010667
03:00+11ne61296100 5.9 1010614
06:00+12ne8159599 0.6 1010771
09:00+14ne71287100 0.6 1011928
12:00+16ne8127662 1.3 10111087
15:00+18ne8127634 3.5 10111509
18:00+17nne8147813 1.1 1010971
21:00+14nne715825 1.3 1011620
3 july, sun
sun300:00+13nne615845 0.0 1011478
03:00+11n51288100 0.0 1010262
06:00+14nne513795 0.0 1011440
09:00+19nne686217 0.0 1010959
12:00+22nne68512 0.0 10101838
15:00+23nne57485 0.0 10102122
18:00+21nne366577 0.0 1010253
21:00+15nne338161 0.0 101230
4 july, mon
mon400:00+14nne41092100 0.0 1012245
03:00+13n4997100 0.0 1013256
06:00+14nne510870 0.0 1014441
09:00+19nne712584 0.0 10141559
12:00+20n7105156 0.0 10142279
15:00+22n794878 0.0 10142316
18:00+19ne495999 0.0 1015432
21:00+14nne23765 0.0 101722
5 july, tue
tue500:00+13nne33805 0.0 101729
03:00+11nne228416 0.0 101820
06:00+15n24755 0.0 1019126
09:00+20n23535 0.0 1019877
12:00+23nne34469 0.0 10181861
15:00+24nnw244399 0.0 10172007
18:00+24wnw23580 0.0 1017266
21:00+17wnw22790 0.0 101712